EST,Max TemperatureF,Mean TemperatureF,Min TemperatureF,Max Dew PointF,MeanDew PointF,Min DewpointF,Max Humidity, Mean Humidity, Min Humidity, Max Sea Level PressureIn, Mean Sea Level PressureIn, Min Sea Level PressureIn, Max VisibilityMiles, Mean VisibilityMiles, Min VisibilityMiles, Max Wind SpeedMPH, Mean Wind SpeedMPH, Max Gust SpeedMPH,PrecipitationIn, CloudCover, Events, WindDirDegrees
2013-2-1,15,8,0,10,3,-2,100,87,72,30.03,29.97,29.79,10,8,3,13,5,,0.00,7,,54
2013-2-2,15,6,-2,9,2,-4,100,88,67,30.00,29.98,29.95,10,8,0,13,6,16,0.00,5,,264
2013-2-3,17,8,0,14,7,-4,100,90,73,29.94,29.81,29.71,10,7,0,21,6,28,0.00,6,,231
2013-2-4,19,6,-7,10,1,-9,100,84,49,29.95,29.89,29.85,10,9,3,10,4,,0.00,3,,206
2013-2-5,23,12,1,18,10,-2,100,89,73,29.91,29.76,29.63,10,6,1,17,7,26,0.01,6,,226
2013-2-6,14,4,-5,9,4,-8,100,88,73,30.23,30.14,29.92,10,7,0,10,5,,0.00,7,,84
2013-2-7,15,12,10,16,11,9,100,93,85,30.24,30.19,30.15,10,6,0,15,10,17,0.00,8,,65
2013-2-8,21,12,3,12,8,0,93,81,63,30.36,30.25,30.15,10,10,5,13,9,17,0.00,3,,4
2013-2-9,24,8,-7,18,5,-9,100,87,73,30.39,30.30,30.16,10,9,2,14,5,,0.00,3,,112
2013-2-10,33,22,12,34,24,10,100,92,80,30.17,29.96,29.55,10,8,1,28,11,34,0.10,7,,111
2013-2-11,37,32,24,37,32,23,100,96,86,29.65,29.41,29.31,10,6,1,30,17,40,0.12,8,,204
2013-2-12,28,24,19,25,22,18,100,90,74,29.87,29.80,29.67,10,9,4,15,10,23,0.00,8,,259
2013-2-13,37,28,21,30,26,19,100,88,70,29.77,29.66,29.61,10,9,5,14,5,18,0.00,6,,204
2013-2-14,39,31,21,36,30,21,100,96,81,29.75,29.64,29.59,10,3,0,22,8,32,0.06,8,,301
2013-2-15,19,16,10,19,12,7,100,85,68,30.06,29.96,29.75,10,9,2,23,12,30,0.00,7,,316
2013-2-16,15,8,1,9,2,0,92,81,49,30.10,30.06,30.02,10,10,1,13,6,17,0.00,2,,5
2013-2-17,26,11,-4,9,2,-6,100,74,34,30.15,30.11,30.05,10,10,10,10,4,,0.00,3,,101
2013-2-18,32,20,10,30,19,9,100,85,74,30.06,29.80,29.48,10,10,4,28,15,34,0.01,7,,128
2013-2-19,33,20,8,34,25,7,100,97,92,29.75,29.35,29.11,4,2,0,32,16,41,0.37,8,,320
2013-2-20,10,6,3,9,5,0,100,88,78,30.26,30.05,29.76,10,5,1,23,17,31,0.00,8,,329
2013-2-21,24,12,1,14,5,0,100,85,59,30.42,30.36,30.26,10,10,1,10,6,,0.00,4,,355
2013-2-22,26,17,8,27,17,7,100,95,86,30.33,30.07,29.80,10,5,0,24,13,31,0.00,7,,86
2013-2-23,35,27,19,30,26,18,100,95,81,29.80,29.76,29.73,10,6,0,13,5,,0.02,7,,175
2013-2-24,35,22,10,28,21,10,100,92,70,30.09,29.95,29.80,10,8,0,13,4,17,0.00,6,,303
2013-2-25,33,27,21,28,26,19,100,92,70,30.16,30.13,30.10,10,10,9,9,3,,0.00,8,,144
2013-2-26,33,30,26,28,27,25,100,90,70,30.17,30.05,29.86,10,10,9,18,7,25,0.00,7,,72
2013-2-27,35,30,26,30,28,25,100,87,75,29.86,29.74,29.69,10,8,0,17,11,22,0.01,7,,32
2013-2-28,33,25,15,30,21,12,100,76,59,30.09,29.89,29.72,10,10,2,21,13,26,0.00,5,,7